• In Deutschland
  • Länderverzeichnis
  • Für 7 Tage
  • Wassertemperatur
  • Satellitenkarten
  • Wetterkarte
  • Widgets
  • user-avatar
    Anmelden

    Stündliche Wetter Bad Kötzting

    Heute, 27 April, Freitag

    Zeit Temperatur Niederschläge Wind Luftdruck Luftfeuchtigkeit
    00:00 +6°C° 0 mm 1 m/S 726 mmHg 73%
    01:00 +6°C° 0 mm 1 m/S 726 mmHg 74%
    02:00 +6°C° 0 mm 1 m/S 726 mmHg 74%
    03:00 +6°C° 0 mm 1 m/S 725 mmHg 75%
    04:00 +5°C° 0 mm 1 m/S 725 mmHg 75%
    05:00 +7°C° 0 mm 1 m/S 725 mmHg 72%
    06:00 +8°C° 0 mm 1 m/S 725 mmHg 68%
    07:00 +9°C° 0 mm 1 m/S 725 mmHg 64%
    08:00 +10°C° 0 mm 2 m/S 724 mmHg 58%
    09:00 +13°C° 0 mm 2 m/S 724 mmHg 52%
    10:00 +14°C° 0 mm 3 m/S 723 mmHg 46%
    11:00 +16°C° 0 mm 3 m/S 723 mmHg 45%
    12:00 +17°C° 0 mm 3 m/S 722 mmHg 43%
    13:00 +19°C° 0 mm 3 m/S 722 mmHg 41%
    14:00 +19°C° 0 mm 3 m/S 721 mmHg 43%
    15:00 +20°C° 0 mm 3 m/S 720 mmHg 44%
    16:00 +20°C° 0 mm 3 m/S 720 mmHg 46%
    17:00 +18°C° 0 mm 2 m/S 720 mmHg 55%
    18:00 +17°C° 0 mm 2 m/S 719 mmHg 65%
    19:00 +15°C° 0 mm 2 m/S 719 mmHg 74%
    20:00 +14°C° 0,1 mm 1 m/S 719 mmHg 77%
    21:00 +13°C° 0,1 mm 1 m/S 720 mmHg 80%
    22:00 +12°C° 0,1 mm 1 m/S 720 mmHg 83%
    23:00 +12°C° 0,1 mm 1 m/S 720 mmHg 85%

    Morgen, 28 April, Samstag

    Zeit Temperatur Niederschläge Wind Luftdruck Luftfeuchtigkeit
    00:00 +12°C° 0,1 mm 1 m/S 721 mmHg 87%
    01:00 +11°C° 0,1 mm 1 m/S 721 mmHg 90%
    02:00 +11°C° 0 mm 1 m/S 721 mmHg 91%
    03:00 +11°C° 0 mm 1 m/S 721 mmHg 92%
    04:00 +10°C° 0 mm 1 m/S 721 mmHg 94%
    05:00 +12°C° 0 mm 1 m/S 722 mmHg 90%
    06:00 +13°C° 0 mm 1 m/S 722 mmHg 87%
    07:00 +13°C° 0 mm 0 m/S 722 mmHg 84%
    08:00 +16°C° 0 mm 1 m/S 722 mmHg 74%
    09:00 +19°C° 0 mm 1 m/S 722 mmHg 65%
    10:00 +21°C° 0 mm 1 m/S 723 mmHg 55%
    11:00 +22°C° 0,1 mm 1 m/S 722 mmHg 53%
    12:00 +23°C° 0,1 mm 1 m/S 722 mmHg 51%
    13:00 +24°C° 0,1 mm 1 m/S 722 mmHg 50%
    14:00 +24°C° 0,2 mm 1 m/S 721 mmHg 51%
    15:00 +24°C° 0,2 mm 1 m/S 721 mmHg 53%
    16:00 +23°C° 0,2 mm 2 m/S 720 mmHg 55%
    17:00 +21°C° 0,1 mm 2 m/S 720 mmHg 62%
    18:00 +19°C° 0,1 mm 2 m/S 719 mmHg 70%
    19:00 +17°C° 0,1 mm 2 m/S 719 mmHg 77%
    20:00 +16°C° 0,1 mm 1 m/S 719 mmHg 81%
    21:00 +15°C° 0,1 mm 1 m/S 719 mmHg 84%
    22:00 +14°C° 0,1 mm 1 m/S 720 mmHg 87%
    23:00 +14°C° 0 mm 1 m/S 719 mmHg 88%

    übermorgen, 29 April, Sonntag

    Zeit Temperatur Niederschläge Wind Luftdruck Luftfeuchtigkeit
    00:00 +14°C° 0 mm 1 m/S 719 mmHg 89%
    01:00 +14°C° 0 mm 1 m/S 719 mmHg 90%
    02:00 +14°C° 0,2 mm 1 m/S 719 mmHg 91%
    03:00 +13°C° 0,2 mm 1 m/S 719 mmHg 93%
    04:00 +13°C° 0,2 mm 1 m/S 719 mmHg 94%
    05:00 +14°C° 0,1 mm 1 m/S 719 mmHg 92%
    06:00 +14°C° 0,1 mm 1 m/S 719 mmHg 90%
    07:00 +15°C° 0,1 mm 1 m/S 719 mmHg 87%
    08:00 +18°C° 0 mm 1 m/S 719 mmHg 80%
    09:00 +19°C° 0 mm 2 m/S 719 mmHg 72%
    10:00 +21°C° 0 mm 2 m/S 718 mmHg 65%
    11:00 +23°C° 0 mm 2 m/S 718 mmHg 60%
    12:00 +24°C° 0 mm 2 m/S 717 mmHg 55%
    13:00 +26°C° 0 mm 3 m/S 717 mmHg 50%
    14:00 +26°C° 0 mm 3 m/S 716 mmHg 49%
    15:00 +26°C° 0 mm 3 m/S 715 mmHg 48%
    16:00 +26°C° 0 mm 3 m/S 715 mmHg 47%
    17:00 +24°C° 0 mm 3 m/S 714 mmHg 55%
    18:00 +22°C° 0 mm 3 m/S 713 mmHg 62%
    19:00 +20°C° 0 mm 2 m/S 713 mmHg 70%
    20:00 +19°C° 0 mm 2 m/S 712 mmHg 72%
    21:00 +17°C° 0 mm 2 m/S 712 mmHg 74%
    22:00 +16°C° 0 mm 2 m/S 712 mmHg 76%
    23:00 +16°C° 0 mm 2 m/S 713 mmHg 75%

    30 April, Montag

    Zeit Temperatur Niederschläge Wind Luftdruck Luftfeuchtigkeit
    00:00 +14°C° 0 mm 3 m/S 713 mmHg 73%
    01:00 +14°C° 0 mm 3 m/S 714 mmHg 72%
    02:00 +13°C° 0 mm 4 m/S 715 mmHg 71%
    03:00 +12°C° 0 mm 5 m/S 716 mmHg 70%
    04:00 +11°C° 0 mm 6 m/S 717 mmHg 69%
    05:00 +10°C° 0 mm 6 m/S 717 mmHg 69%
    06:00 +10°C° 0 mm 5 m/S 718 mmHg 70%
    07:00 +10°C° 0 mm 5 m/S 719 mmHg 71%
    08:00 +10°C° 0 mm 5 m/S 719 mmHg 67%
    09:00 +12°C° 0 mm 5 m/S 720 mmHg 63%
    10:00 +13°C° 0 mm 5 m/S 720 mmHg 60%
    11:00 +14°C° 0 mm 5 m/S 720 mmHg 55%
    12:00 +15°C° 0 mm 4 m/S 720 mmHg 51%
    13:00 +17°C° 0 mm 4 m/S 720 mmHg 46%
    14:00 +17°C° 0 mm 4 m/S 720 mmHg 46%
    15:00 +18°C° 0 mm 3 m/S 720 mmHg 45%
    16:00 +18°C° 0 mm 3 m/S 720 mmHg 45%
    17:00 +17°C° 0 mm 2 m/S 720 mmHg 51%
    18:00 +15°C° 0 mm 2 m/S 720 mmHg 57%
    19:00 +14°C° 0 mm 1 m/S 720 mmHg 63%
    20:00 +13°C° 0 mm 1 m/S 720 mmHg 65%
    21:00 +13°C° 0 mm 1 m/S 721 mmHg 67%
    22:00 +12°C° 0 mm 1 m/S 721 mmHg 69%
    23:00 +12°C° 0 mm 1 m/S 721 mmHg 71%

    1 Mai, Dienstag

    Zeit Temperatur Niederschläge Wind Luftdruck Luftfeuchtigkeit
    00:00 +12°C° 0 mm 1 m/S 721 mmHg 73%
    01:00 +11°C° 0 mm 1 m/S 721 mmHg 75%
    02:00 +10°C° 0 mm 0 m/S 721 mmHg 76%
    03:00 +10°C° 0 mm 0 m/S 721 mmHg 77%
    04:00 +9°C° 0 mm 0 m/S 721 mmHg 78%
    05:00 +10°C° 0 mm 0 m/S 721 mmHg 75%
    06:00 +12°C° 0 mm 1 m/S 721 mmHg 73%
    07:00 +13°C° 0 mm 1 m/S 721 mmHg 70%
    08:00 +15°C° 0 mm 1 m/S 721 mmHg 64%
    09:00 +18°C° 0 mm 1 m/S 721 mmHg 58%
    10:00 +19°C° 0 mm 1 m/S 721 mmHg 51%
    11:00 +19°C° 0 mm 1 m/S 721 mmHg 52%
    12:00 +19°C° 0 mm 1 m/S 721 mmHg 53%
    13:00 +20°C° 0 mm 1 m/S 721 mmHg 54%
    14:00 +19°C° 0,1 mm 1 m/S 721 mmHg 56%
    15:00 +18°C° 0,1 mm 2 m/S 721 mmHg 58%
    16:00 +18°C° 0,1 mm 2 m/S 721 mmHg 60%
    17:00 +17°C° 0,2 mm 2 m/S 721 mmHg 67%
    18:00 +15°C° 0,2 mm 2 m/S 721 mmHg 74%
    19:00 +13°C° 0,2 mm 3 m/S 721 mmHg 81%
    20:00 +12°C° 0 mm 3 m/S 722 mmHg 82%
    21:00 +12°C° 0 mm 3 m/S 722 mmHg 83%
    22:00 +11°C° 0 mm 3 m/S 722 mmHg 85%
    23:00 +11°C° 0,1 mm 3 m/S 723 mmHg 84%

    2 Mai, Mittwoch

    Zeit Temperatur Niederschläge Wind Luftdruck Luftfeuchtigkeit
    00:00 +11°C° 0,1 mm 3 m/S 723 mmHg 84%
    01:00 +10°C° 0,1 mm 3 m/S 723 mmHg 83%
    02:00 +10°C° 0,2 mm 3 m/S 723 mmHg 84%
    03:00 +10°C° 0,2 mm 3 m/S 723 mmHg 85%
    04:00 +9°C° 0,2 mm 3 m/S 723 mmHg 86%
    05:00 +9°C° 0,5 mm 3 m/S 723 mmHg 87%
    06:00 +9°C° 0,5 mm 3 m/S 723 mmHg 89%
    07:00 +9°C° 0,5 mm 3 m/S 723 mmHg 90%
    08:00 +9°C° 0,2 mm 3 m/S 723 mmHg 89%
    09:00 +10°C° 0,2 mm 3 m/S 723 mmHg 88%
    10:00 +10°C° 0,2 mm 3 m/S 723 mmHg 88%
    11:00 +10°C° 0,1 mm 3 m/S 723 mmHg 87%
    12:00 +11°C° 0,1 mm 3 m/S 723 mmHg 86%
    13:00 +12°C° 0,1 mm 3 m/S 723 mmHg 85%
    14:00 +12°C° 0 mm 3 m/S 723 mmHg 84%
    15:00 +13°C° 0 mm 3 m/S 723 mmHg 83%
    16:00 +13°C° 0 mm 3 m/S 723 mmHg 82%
    17:00 +13°C° 0,1 mm 3 m/S 723 mmHg 84%
    18:00 +12°C° 0,1 mm 3 m/S 723 mmHg 86%
    19:00 +12°C° 0,1 mm 3 m/S 723 mmHg 88%
    20:00 +12°C° 0,1 mm 3 m/S 723 mmHg 89%
    21:00 +11°C° 0,1 mm 3 m/S 723 mmHg 90%
    22:00 +11°C° 0,1 mm 3 m/S 723 mmHg 91%
    23:00 +11°C° 0,1 mm 3 m/S 723 mmHg 92%
    Mehr zeigen